M3NIC-5 Weather Reports


time (UTC)temp
C
wind
direction
speed
KPH
gust
KPH
rain 1hr
cm
rain 24hr
cm
rain mn
cm
humidity
%
barometer
mb
20260507053005 8 321 1.6 4.8 0.00 0.00 0.00 88 1017.2
20260507040003 8 333 1.6 4.8 0.00 0.00 0.00 88 1016.9
20260507030003 8 326 1.6 4.8 0.00 0.00 0.00 87 1016.7
20260506233004 9 33 0.0 0.0 0.00 0.00 0.00 82 1016.3
20260506220003 10 57 0.0 3.2 0.00 0.00 0.00 78 1016.0
20260506210006 10 78 0.0 4.8 0.00 0.00 0.00 77 1015.8
20260506200005 10 61 1.6 4.8 0.00 0.00 0.00 76 1015.5
20260506190005 11 52 0.0 11.3 0.00 0.00 0.00 72 1014.9
20260506183007 11 12 0.0 8.0 0.00 0.00 0.00 71 1014.6
20260506180005 11 245 3.2 9.7 0.00 0.00 0.00 70 1014.2
20260506173002 11 258 1.6 12.9 0.00 0.00 0.00 69 1014.1
20260506170002 12 205 4.8 12.9 0.00 0.00 0.00 68 1014.0
20260506153002 13 77 3.2 12.9 0.00 0.00 0.00 58 1013.9
20260506150004 14 177 3.2 20.9 0.00 0.00 0.00 56 1013.7
20260506140004 15 53 9.7 20.9 0.00 0.00 0.00 50 1013.6
20260506133004 15 205 3.2 19.3 0.00 0.00 0.00 54 1013.7
20260506130004 15 53 4.8 24.1 0.00 0.00 0.00 46 1013.6
20260506123004 14 82 4.8 19.3 0.00 0.00 0.00 50 1013.6
20260506113003 14 324 6.4 24.1 0.00 0.00 0.00 52 1013.7
20260506103002 14 71 8.0 20.9 0.00 0.00 0.00 53 1013.9
20260506093004 13 350 4.8 14.5 0.00 0.00 0.00 62 1013.9
20260506090004 12 13 6.4 16.1 0.00 0.00 0.00 64 1013.9